Weather History for Bozeman, MT

Change the Weather History Date:

Wednesday, April 17, 2013

  Actual Average Record
Temperature  
Mean Temperature 24 °F 45 °F  
Max Temperature 35 °F 60 °F 78 °F (1994)
Min Temperature 12 °F 31 °F 5 °F (1964)
Degree Days  
Heating Degree Days 41    
Month to date heating degree days 468  
Since 1 July heating degree days 7150  
Cooling Degree Days 0    
Month to date cooling degree days 0  
Year to date cooling degree days 0  
Moisture  
Dew Point 15 °F    
Average Humidity 67    
Maximum Humidity 91    
Minimum Humidity 43    
Precipitation  
Precipitation 0.02 in 0.05 in 0.87 in (2003)
Month to date precipitation 0.49 0.85  
Year to date precipitation 1.00 2.70  
Snow  
Snow 1.00 in 0.30 in 2.00 in (1965)
Month to date snowfall 2.8 4.9  
Since 1 July snowfall 22.1 34.9  
Snow Depth 1.00 in    
Sea Level Pressure  
Sea Level Pressure 30.31 in    
Wind  
Wind Speed 4 mph (SW)    
Max Wind Speed 13 mph    
Max Gust Speed 16 mph    
Visibility 7 miles    
Events Fog , Snow    
T = Trace of Precipitation, MM = Missing Value Source: NWS Daily Summary

Daily Weather History Graph

Daily Weather History Graph

Search for Another Location

Airport:

Trip Planner

Search our weather history database for the weather conditions in past years. The results will help you decide how hot, cold, wet, or windy it might be!

Date:

Astronomy

Apr. 17, 2013 Rise Set
Actual Time 6:34 AM MDT 8:14 PM MDT
Civil Twilight 6:03 AM MDT 8:45 PM MDT
Nautical Twilight 5:25 AM MDT 9:24 PM MDT
Astronomical Twilight 4:43 AM MDT 10:05 PM MDT
Moon 11:46 AM MDT (4/17) 2:00 AM MDT (4/17)
Length of Visible Light 14h 42m
Length of Day
13h 39m
Waxing Crescent, 43% of the Moon is Illuminated
Apr 17
Waxing Crescent
Apr 18
First Quarter
Apr 25
Full
May 2
Last Quarter
May 9
New

Hourly Weather History & Observations

Time (MDT) Temp. Windchill Dew Point Humidity Pressure Visibility Wind Dir Wind Speed Gust Speed Precip Events Conditions
12:47 AM 21.2 °F - 17.6 °F 86% 30.21 in 6.0 mi Calm Calm - 0.00 in Snow Light Snow
12:56 AM 21.9 °F 17.2 °F 17.1 °F 82% 30.35 in 4.0 mi WSW 3.5 mph - 0.00 in Snow Light Snow
1:13 AM 21.2 °F 16.4 °F 17.6 °F 86% 30.21 in 5.0 mi SW 3.5 mph - 0.00 in Snow Light Snow
1:56 AM 19.9 °F 14.9 °F 16.0 °F 85% 30.35 in 9.0 mi SW 3.5 mph - 0.00 in   Overcast
2:56 AM 19.0 °F 13.9 °F 15.1 °F 85% 30.36 in 6.0 mi WSW 3.5 mph - 0.00 in Snow Light Snow
3:56 AM 19.9 °F 14.9 °F 15.1 °F 81% 30.35 in 3.0 mi SW 3.5 mph - 0.00 in Snow Light Snow
4:12 AM 19.4 °F 14.3 °F 15.8 °F 86% 30.22 in 2.5 mi SW 3.5 mph - 0.00 in Snow Light Snow
4:36 AM 19.4 °F - 17.6 °F 93% 30.22 in 1.8 mi Calm Calm - 0.00 in Snow Light Snow
4:48 AM 19.4 °F 14.3 °F 17.6 °F 93% 30.22 in 0.8 mi SW 3.5 mph - 0.01 in Snow Light Snow
4:56 AM 19.9 °F - 17.1 °F 89% 30.36 in 0.5 mi Calm Calm - 0.01 in Fog , Snow Snow
5:06 AM 19.4 °F 14.3 °F 17.6 °F 93% 30.22 in 1.5 mi West 3.5 mph - 0.00 in Snow Light Snow
5:08 AM 19.4 °F 12.8 °F 17.6 °F 93% 30.22 in 2.0 mi WNW 4.6 mph - 0.00 in Snow Light Snow
5:13 AM 17.6 °F 12.3 °F 15.8 °F 93% 30.22 in 4.0 mi WNW 3.5 mph - 0.00 in Snow Light Snow
5:30 AM 15.8 °F 8.6 °F 12.2 °F 86% 30.22 in 6.0 mi West 4.6 mph - 0.00 in   Mostly Cloudy
5:38 AM 15.8 °F 6.1 °F 12.2 °F 86% 30.22 in 8.0 mi West 6.9 mph - 0.00 in   Overcast
5:56 AM 14.0 °F 6.5 °F 10.9 °F 88% 30.39 in 10.0 mi West 4.6 mph - 0.00 in   Mostly Cloudy
6:24 AM 15.8 °F 7.2 °F 10.4 °F 79% 30.23 in 10.0 mi West 5.8 mph - N/A   Overcast
6:32 AM 15.8 °F - 10.4 °F 79% 30.23 in 10.0 mi Calm Calm - 0.01 in   Overcast
6:56 AM 16.0 °F - 12.9 °F 88% 30.40 in 10.0 mi Calm Calm - 0.01 in   Overcast
7:14 AM 12.2 °F 4.3 °F 8.6 °F 85% 30.24 in 10.0 mi SW 4.6 mph - N/A   Scattered Clouds
7:26 AM 12.2 °F 6.1 °F 8.6 °F 85% 30.24 in 10.0 mi WSW 3.5 mph - N/A   Mostly Cloudy
7:56 AM 15.1 °F 9.4 °F 10.0 °F 80% 30.42 in 10.0 mi SSW 3.5 mph - N/A   Overcast
8:22 AM 15.8 °F 6.1 °F 12.2 °F 86% 30.25 in 10.0 mi SSW 6.9 mph - N/A   Overcast
8:40 AM 15.8 °F 7.2 °F 10.4 °F 79% 30.25 in 10.0 mi SSW 5.8 mph - N/A   Scattered Clouds
8:56 AM 15.1 °F 7.7 °F 10.0 °F 80% 30.43 in 10.0 mi SE 4.6 mph - N/A   Partly Cloudy
9:56 AM 23.0 °F - 12.0 °F 63% 30.40 in 10.0 mi Calm Calm - N/A   Overcast
10:56 AM 24.1 °F - 12.9 °F 62% 30.41 in 10.0 mi Calm Calm - N/A   Overcast
11:23 AM 24.8 °F - 12.2 °F 59% 30.25 in 10.0 mi Calm Calm - N/A   Overcast
11:56 AM 27.0 °F - 10.0 °F 49% 30.39 in 10.0 mi Calm Calm - N/A   Overcast
12:56 PM 26.1 °F 17.6 °F 18.0 °F 71% 30.39 in 10.0 mi SSW 8.1 mph - 0.00 in   Mostly Cloudy
1:44 PM 26.6 °F - 17.6 °F 69% 30.24 in 2.5 mi Calm Calm - 0.00 in Snow Light Snow
1:52 PM 26.6 °F - 17.6 °F 69% 30.24 in 5.0 mi Calm Calm - 0.00 in Snow Light Snow
1:56 PM 28.0 °F 24.2 °F 18.0 °F 66% 30.39 in 5.0 mi SE 3.5 mph - 0.00 in Snow Light Snow
2:35 PM 26.6 °F 16.8 °F 19.4 °F 74% 30.24 in 1.5 mi NW 10.4 mph - 0.00 in Snow Light Snow
2:38 PM 24.8 °F 16.1 °F 21.2 °F 86% 30.24 in 0.8 mi NW 8.1 mph - 0.00 in Snow Light Snow
2:56 PM 27.0 °F - 21.9 °F 81% 30.40 in 2.5 mi Calm Calm - 0.00 in Snow Light Snow
3:03 PM 28.4 °F - 24.8 °F 86% 30.23 in 8.0 mi Calm Calm - 0.00 in   Mostly Cloudy
3:56 PM 30.9 °F 23.5 °F 18.0 °F 59% 30.36 in 10.0 mi North 8.1 mph - 0.00 in   Overcast
4:56 PM 32.0 °F 25.6 °F 17.1 °F 54% 30.36 in 10.0 mi NE 6.9 mph - 0.00 in   Mostly Cloudy
5:56 PM 34.0 °F - 14.0 °F 44% 30.37 in 10.0 mi Calm Calm - N/A   Overcast
6:56 PM 34.0 °F 29.8 °F 14.0 °F 44% 30.37 in 10.0 mi Variable 4.6 mph - N/A   Overcast
7:56 PM 30.0 °F 24.1 °F 14.0 °F 51% 30.38 in 10.0 mi SE 5.8 mph - N/A   Clear
8:56 PM 26.1 °F 17.6 °F 14.0 °F 60% 30.40 in 10.0 mi SSE 8.1 mph - N/A   Clear
9:56 PM 23.0 °F 13.9 °F 15.1 °F 72% 30.39 in 10.0 mi South 8.1 mph - N/A   Clear
10:56 PM 21.9 °F 13.4 °F 12.9 °F 68% 30.40 in 10.0 mi SE 6.9 mph - N/A   Clear
11:56 PM 21.0 °F 12.4 °F 14.0 °F 74% 30.38 in 10.0 mi SSE 6.9 mph - N/A   Clear